Location: Buckeye Ditch
(40.9104°N, 122.9517°W)
Time: 17:07:19
(UTC+00:00)

SR - Pass Details

Date: 27 May 2025
Orbit: 570 x 855 km, 66.7° (Epoch: 13 June)

Event Time Altitude Azimuth Distance (km) Brightness Sun altitude
Rises 08:28:26 0° 264° (W) 3,417 - -27.6°
Exits shadow 08:29:06 - 267° (W) 3,227 ? -27.6°
Reaches altitude 10° 08:32:07 10° 287° (WNW) 2,488 ? -27.5°
Maximum altitude 08:35:18 15° 321° (NW) 2,152 ? -27.4°
Drops below altitude 10° 08:38:28 10° 355° (N) 2,464 ? -27.3°
Sets 08:42:06 0° 18° (NNE) 3,365 ? -27.3°
